FW7635 Weather Reports


time (UTC)temp
C
wind
direction
speed
KPH
gust
KPH
rain 1hr
cm
rain 24hr
cm
rain mn
cm
humidity
%
barometer
mb
20260506033005 12 228 8.0 19.3 0.00 0.00 0.00 83 1099.8
20260506032504 12 225 8.0 20.9 0.00 0.00 0.00 82 1099.8
20260506032005 13 262 8.0 14.5 0.00 0.00 0.00 82 1099.8
20260506031504 13 257 9.7 24.1 0.00 0.00 0.00 83 1099.8
20260506030005 12 229 8.0 16.1 0.00 0.00 0.00 82 1099.8
20260506025505 12 229 8.0 14.5 0.00 0.00 0.00 82 1099.8
20260506025005 12 229 9.7 29.0 0.00 0.00 0.00 82 1099.8
20260506024505 12 231 8.0 25.7 0.00 0.00 0.00 82 1099.8
20260506024005 12 267 8.0 16.1 0.00 0.00 0.00 81 1099.8
20260506023504 12 267 3.2 14.5 0.00 0.00 0.00 81 1099.8
20260506023005 12 252 6.4 19.3 0.00 0.00 0.00 81 1099.8
20260506022504 12 222 8.0 14.5 0.00 0.00 0.00 80 1099.8
20260506022005 12 243 4.8 12.9 0.00 0.00 0.00 80 1099.8
20260506021505 12 243 6.4 14.5 0.00 0.00 0.00 80 1099.8
20260506021004 12 237 4.8 14.5 0.00 0.00 0.00 80 1099.8
20260506020504 12 237 8.0 19.3 0.00 0.00 0.00 80 1099.8
20260506020004 12 237 8.0 19.3 0.00 0.00 0.00 80 1099.8
20260506015504 12 183 6.4 22.5 0.00 0.00 0.00 79 1099.8
20260506014504 12 229 6.4 12.9 0.00 0.00 0.00 79 1099.8
20260506014005 12 218 4.8 19.3 0.00 0.00 0.00 78 1099.8
20260506013506 12 215 6.4 19.3 0.00 0.00 0.00 78 1099.8
20260506013004 12 208 8.0 22.5 0.00 0.00 0.00 78 1099.8
20260506012004 12 252 3.2 14.5 0.00 0.00 0.00 79 1099.8
20260506011504 12 252 8.0 12.9 0.00 0.00 0.00 79 1099.8
20260506011005 12 252 6.4 14.5 0.00 0.00 0.00 79 1099.8
20260506010504 12 252 4.8 12.9 0.00 0.00 0.00 80 1099.8
20260506010004 12 252 8.0 14.5 0.00 0.00 0.00 80 1099.8
20260506005504 12 252 4.8 11.3 0.00 0.00 0.00 80 1099.8
20260506005004 12 252 4.8 11.3 0.00 0.00 0.00 80 1099.8
20260506004505 12 252 4.8 16.1 0.00 0.00 0.00 81 1099.8
20260506003505 12 208 8.0 20.9 0.00 0.00 0.00 81 1099.8
20260506003005 12 248 8.0 20.9 0.00 0.00 0.00 80 1099.8
20260506002505 12 207 8.0 22.5 0.00 0.00 0.00 80 1099.8
20260506002005 12 233 8.0 20.9 0.00 0.00 0.00 80 1099.8
20260506001504 12 189 8.0 22.5 0.00 0.00 0.00 80 1099.8
20260506000505 12 232 6.4 19.3 0.00 0.00 0.00 79 1099.8
20260506000004 12 187 9.7 25.7 0.00 0.00 0.00 79 1099.8
20260505235504 12 234 4.8 14.5 0.00 0.00 0.00 79 1099.8
20260505234505 13 222 9.7 20.9 0.00 0.00 0.00 79 1099.8
20260505233504 13 191 9.7 22.5 0.00 0.00 0.00 79 1099.8
20260505233005 13 231 8.0 24.1 0.00 0.00 0.00 79 1099.8
20260505232505 13 208 9.7 24.1 0.00 0.00 0.00 79 1099.8
20260505232005 13 224 11.3 22.5 0.00 0.00 0.00 79 1099.8
20260505230504 13 257 8.0 16.1 0.00 0.00 0.00 79 1099.8
20260505230004 13 170 11.3 29.0 0.00 0.00 0.00 79 1099.8
20260505225504 13 210 9.7 19.3 0.00 0.00 0.00 79 1099.8
20260505225006 13 194 9.7 32.2 0.00 0.00 0.00 78 1099.8
20260505224006 13 231 6.4 14.5 0.00 0.00 0.00 78 1099.8
20260505223504 13 170 9.7 19.3 0.00 0.00 0.00 78 1099.8
20260505223004 13 229 9.7 32.2 0.00 0.00 0.00 77 1099.8
20260505222004 13 231 4.8 24.1 0.00 0.00 0.00 77 1099.8
20260505221504 13 228 8.0 22.5 0.00 0.00 0.00 76 1099.8
20260505221005 13 204 11.3 32.2 0.00 0.00 0.00 76 1099.8
20260505220505 14 219 9.7 33.8 0.00 0.00 0.00 76 1099.8
20260505220005 14 221 14.5 32.2 0.00 0.00 0.00 76 1099.8
20260505215504 14 218 6.4 24.1 0.00 0.00 0.00 76 1099.8
20260505215005 14 213 9.7 20.9 0.00 0.00 0.00 76 1099.8
20260505214504 14 217 11.3 29.0 0.00 0.00 0.00 76 1099.8
20260505214005 14 208 12.9 22.5 0.00 0.00 0.00 75 1099.8
20260505213504 14 213 8.0 32.2 0.00 0.00 0.00 76 1099.8
20260505213005 14 231 16.1 32.2 0.00 0.00 0.00 75 1099.8
20260505212505 14 229 11.3 38.6 0.00 0.00 0.00 75 1099.8
20260505211505 15 210 6.4 20.9 0.00 0.00 0.00 75 1099.8
20260505211004 14 222 9.7 24.1 0.00 0.00 0.00 76 1099.8
20260505210505 14 204 9.7 25.7 0.00 0.00 0.00 75 1099.8
20260505210004 15 241 14.5 38.6 0.00 0.00 0.00 74 1099.8
20260505205504 14 219 11.3 32.2 0.00 0.00 0.00 75 1099.8
20260505205004 14 198 11.3 40.2 0.00 0.00 0.00 76 1099.8
20260505204506 14 223 14.5 37.0 0.00 0.00 0.00 75 1099.8
20260505204004 14 218 17.7 35.4 0.00 0.00 0.00 75 1099.8
20260505203504 14 196 14.5 41.8 0.00 0.00 0.00 75 1099.8
20260505203004 15 217 11.3 38.6 0.00 0.00 0.00 75 1099.8
20260505202005 15 223 16.1 41.8 0.00 0.00 0.00 74 1099.8
20260505201504 15 227 14.5 29.0 0.00 0.00 0.00 74 1099.8
20260505201004 15 213 9.7 24.1 0.00 0.00 0.00 75 1099.8
20260505200504 15 205 16.1 38.6 0.00 0.00 0.00 74 1099.8
20260505195505 15 221 14.5 37.0 0.00 0.00 0.00 73 1099.8
20260505195004 15 267 12.9 40.2 0.00 0.00 0.00 74 1099.8
20260505194004 15 216 19.3 41.8 0.00 0.00 0.00 73 1099.8
20260505193505 15 245 14.5 29.0 0.00 0.00 0.00 74 1099.8
20260505193005 15 249 16.1 25.7 0.00 0.00 0.00 74 1099.8
20260505192004 15 218 19.3 32.2 0.00 0.00 0.00 72 1099.8
20260505191504 15 240 11.3 29.0 0.00 0.00 0.00 73 1099.8
20260505191005 15 221 11.3 29.0 0.00 0.00 0.00 73 1099.8
20260505190504 15 212 16.1 41.8 0.00 0.00 0.00 73 1099.8
20260505190004 16 229 16.1 33.8 0.00 0.00 0.00 72 1099.8
20260505185504 15 207 8.0 32.2 0.00 0.00 0.00 73 1099.8
20260505185004 15 199 14.5 37.0 0.00 0.00 0.00 73 1099.8
20260505184504 15 231 9.7 35.4 0.00 0.00 0.00 73 1099.8
20260505183005 15 205 12.9 35.4 0.00 0.00 0.00 73 1099.8
20260505182504 15 221 14.5 32.2 0.00 0.00 0.00 73 1099.8
20260505181505 15 192 12.9 40.2 0.00 0.00 0.00 74 1099.8
20260505181004 15 201 14.5 38.6 0.00 0.00 0.00 73 1099.8
20260505180504 15 212 14.5 25.7 0.00 0.00 0.00 73 1099.8
20260505180005 15 222 14.5 32.2 0.00 0.00 0.00 73 1099.8
20260505175504 15 201 12.9 35.4 0.00 0.00 0.00 74 1099.8
20260505175005 15 200 14.5 32.2 0.00 0.00 0.00 73 1099.8
20260505174505 15 187 9.7 32.2 0.00 0.00 0.00 73 1099.8
20260505174004 15 239 16.1 37.0 0.00 0.00 0.00 73 1099.8
20260505173504 15 197 8.0 32.2 0.00 0.00 0.00 73 1099.8
20260505172504 15 223 11.3 32.2 0.00 0.00 0.00 73 1099.8
20260505172005 15 276 9.7 20.9 0.00 0.00 0.00 73 1099.8
20260505171504 15 226 11.3 32.2 0.00 0.00 0.00 74 1099.8
20260505171005 15 212 11.3 25.7 0.00 0.00 0.00 74 1099.8
20260505170504 15 202 16.1 32.2 0.00 0.00 0.00 74 1099.8
20260505170005 15 181 14.5 25.7 0.00 0.00 0.00 74 1099.8
20260505165505 15 207 16.1 32.2 0.00 0.00 0.00 73 1099.8
20260505165004 15 228 12.9 29.0 0.00 0.00 0.00 74 1099.8
20260505164504 15 230 11.3 29.0 0.00 0.00 0.00 73 1099.8
20260505164005 15 223 9.7 22.5 0.00 0.00 0.00 74 1099.8
20260505163504 15 242 9.7 24.1 0.00 0.00 0.00 73 1099.8
20260505163005 15 192 12.9 29.0 0.00 0.00 0.00 73 1099.8
20260505162505 15 207 14.5 35.4 0.00 0.00 0.00 73 1099.8
20260505162004 15 187 14.5 35.4 0.00 0.00 0.00 74 1099.8
20260505161005 15 203 14.5 25.7 0.00 0.00 0.00 74 1099.8
20260505160504 15 216 20.9 41.8 0.00 0.00 0.00 73 1099.8
20260505153005 15 220 11.3 33.8 0.00 0.00 0.00 74 1099.8
20260505152504 15 221 11.3 25.7 0.00 0.00 0.00 74 1099.8
20260505152004 15 238 12.9 38.6 0.00 0.00 0.00 75 1099.8
20260505151505 15 176 12.9 38.6 0.00 0.00 0.00 74 1099.8
20260505151005 15 181 11.3 35.4 0.00 0.00 0.00 73 1099.8
20260505150504 16 216 9.7 24.1 0.00 0.00 0.00 74 1099.8
20260505140504 15 217 9.7 32.2 0.00 0.00 0.00 76 1099.8
20260505125004 13 219 8.0 25.7 0.00 0.00 0.00 78 1099.8
20260505124504 13 199 12.9 29.0 0.00 0.00 0.00 78 1099.8
20260505124004 13 208 9.7 19.3 0.00 0.00 0.00 78 1099.8
20260505123504 13 256 9.7 19.3 0.00 0.00 0.00 78 1099.8
20260505123005 13 228 9.7 32.2 0.00 0.00 0.00 78 1099.8
20260505122504 13 216 14.5 32.2 0.00 0.00 0.00 78 1099.8
20260505122004 13 210 9.7 19.3 0.00 0.00 0.00 79 1099.8
20260505121504 13 258 6.4 22.5 0.00 0.00 0.00 79 1099.8
20260505121004 13 195 9.7 25.7 0.00 0.00 0.00 79 1099.8
20260505120505 13 223 9.7 25.7 0.00 0.00 0.00 79 1099.8
20260505120005 13 208 6.4 19.3 0.00 0.00 0.00 80 1099.8
20260505115506 13 212 9.7 25.7 0.00 0.00 0.00 80 1099.8
20260505115005 12 224 9.7 24.1 0.00 0.00 0.00 81 1099.8
20260505114504 12 240 4.8 16.1 0.00 0.00 0.00 81 1099.8
20260505114004 12 229 9.7 20.9 0.00 0.00 0.00 81 1099.8
20260505113505 12 235 8.0 22.5 0.00 0.00 0.00 82 1099.8
20260505113005 12 239 9.7 19.3 0.00 0.00 0.00 82 1099.8
20260505112504 12 239 4.8 9.7 0.00 0.00 0.00 83 1099.8
20260505112004 12 239 9.7 19.3 0.00 0.00 0.00 83 1099.8
20260505111506 12 238 4.8 12.9 0.00 0.00 0.00 83 1099.8
20260505102005 10 229 3.2 9.7 0.00 0.00 0.00 88 1099.8
20260505101504 10 229 4.8 12.9 0.00 0.00 0.00 88 1099.8
20260505101005 10 229 1.6 11.3 0.00 0.00 0.00 88 1099.8
20260505100504 10 229 3.2 14.5 0.00 0.00 0.00 88 1099.8
20260505100004 10 229 4.8 9.7 0.00 0.00 0.00 88 1099.8
20260505095505 10 229 1.6 8.0 0.00 0.00 0.00 88 1099.8
20260505095005 10 229 4.8 12.9 0.00 0.00 0.00 88 1099.8
20260505094504 9 229 1.6 8.0 0.00 0.00 0.00 88 1099.8
20260505094005 9 229 4.8 11.3 0.00 0.00 0.00 88 1099.8
20260505093504 10 229 3.2 11.3 0.00 0.00 0.00 88 1099.8
20260505093005 10 229 1.6 9.7 0.00 0.00 0.00 88 1099.8
20260505092505 10 229 4.8 12.9 0.00 0.00 0.00 88 1099.8
20260505091504 10 229 4.8 9.7 0.00 0.00 0.00 88 1099.8
20260505091005 10 229 3.2 8.0 0.00 0.00 0.00 88 1099.8
20260505090505 10 229 3.2 12.9 0.00 0.00 0.00 88 1099.8
20260505090005 10 229 1.6 9.7 0.00 0.00 0.00 88 1099.8
20260505085504 10 229 4.8 11.3 0.00 0.00 0.00 89 1099.8
20260505085005 10 207 3.2 14.5 0.00 0.00 0.00 89 1099.8
20260505084504 10 177 3.2 9.7 0.00 0.00 0.00 89 1099.8
20260505084004 10 192 3.2 8.0 0.00 0.00 0.00 89 1099.8
20260505083505 10 198 1.6 12.9 0.00 0.00 0.00 89 1099.8
20260505082004 10 225 3.2 12.9 0.00 0.00 0.00 89 1099.8
20260505081504 10 215 1.6 16.1 0.00 0.00 0.00 89 1099.8
20260505081004 10 212 4.8 12.9 0.00 0.00 0.00 89 1099.8
20260505080504 10 209 3.2 11.3 0.00 0.00 0.00 89 1099.8
20260505080004 10 199 1.6 8.0 0.00 0.00 0.00 89 1099.8
20260505075504 10 191 3.2 20.9 0.00 0.00 0.00 89 1099.8
20260505075005 10 225 3.2 8.0 0.00 0.00 0.00 89 1099.8
20260505074504 10 225 1.6 4.8 0.00 0.00 0.00 89 1099.8
20260505074004 9 225 3.2 11.3 0.00 0.00 0.00 89 1099.8
20260505073504 9 225 1.6 11.3 0.00 0.00 0.00 88 1099.8
20260505073004 9 225 0.0 8.0 0.00 0.00 0.00 88 1099.8
20260505072505 9 225 3.2 8.0 0.00 0.00 0.00 88 1099.8
20260505072004 9 225 3.2 11.3 0.00 0.00 0.00 88 1099.8
20260505071504 9 225 3.2 11.3 0.00 0.00 0.00 88 1099.8
20260505071005 9 225 4.8 12.9 0.00 0.00 0.00 88 1099.8
20260505070504 10 225 3.2 9.7 0.00 0.00 0.00 88 1099.8
20260505065504 10 225 6.4 9.7 0.00 0.00 0.00 88 1099.8
20260505065005 10 225 1.6 4.8 0.00 0.00 0.00 88 1099.8
20260505064504 10 225 1.6 8.0 0.00 0.00 0.00 88 1099.8
20260505064005 10 225 1.6 8.0 0.00 0.00 0.00 88 1099.8
20260505063505 10 225 4.8 12.9 0.00 0.00 0.00 88 1099.8
20260505063004 10 225 1.6 4.8 0.00 0.00 0.00 88 1099.8
20260505062505 10 225 1.6 8.0 0.00 0.00 0.00 88 1099.8
20260505062004 10 225 1.6 4.8 0.00 0.00 0.00 88 1099.8
20260505061504 10 225 3.2 4.8 0.00 0.00 0.00 88 1099.8
20260505061005 10 225 3.2 11.3 0.00 0.00 0.00 87 1099.8
20260505060505 10 225 4.8 9.7 0.00 0.00 0.00 87 1099.8
20260505060005 10 225 0.0 4.8 0.00 0.00 0.00 87 1099.8
20260505055505 10 225 3.2 9.7 0.00 0.00 0.00 87 1099.8
20260505055004 10 225 1.6 11.3 0.00 0.00 0.00 87 1099.8
20260505054505 10 225 1.6 9.7 0.00 0.00 0.00 87 1099.8
20260505054004 10 225 1.6 4.8 0.00 0.00 0.00 87 1099.8
20260505053505 10 225 1.6 4.8 0.00 0.00 0.00 86 1099.8
20260505052505 10 225 1.6 14.5 0.00 0.00 0.00 86 1099.8
20260505052004 10 225 1.6 14.5 0.00 0.00 0.00 86 1099.8
20260505051504 10 225 3.2 12.9 0.00 0.00 0.00 86 1099.8
20260505051004 10 225 0.0 11.3 0.00 0.00 0.00 86 1099.8
20260505050504 10 225 1.6 12.9 0.00 0.00 0.00 86 1099.8
20260505041504 10 214 4.8 14.5 0.00 0.00 0.00 85 1099.8
20260505041005 10 209 4.8 19.3 0.00 0.00 0.00 85 1099.8
20260505040504 10 189 3.2 16.1 0.00 0.00 0.00 84 1099.8
20260505040005 10 184 4.8 11.3 0.00 0.00 0.00 84 1099.8
20260505035504 10 172 4.8 14.5 0.00 0.00 0.00 84 1099.8
20260505035004 10 212 6.4 12.9 0.00 0.00 0.00 84 1099.8
20260505034504 10 218 1.6 11.3 0.00 0.00 0.00 84 1099.8
20260505034004 10 219 3.2 11.3 0.00 0.00 0.00 83 1099.8
20260505033505 10 206 4.8 14.5 0.00 0.00 0.00 83 1099.8